Datum;"Wasserstand in cm";"Stationsnummer: 5936600";"Stationsname: Pritzwalk, Hainholz";"Gew?sser: D�mnitz";"Fehlwerte: -777"
"21.03.2024 00:00";151
"21.03.2024 00:15";151
"21.03.2024 00:30";151
"21.03.2024 00:45";151
"21.03.2024 01:00";151
"21.03.2024 01:15";151
"21.03.2024 01:30";151
"21.03.2024 01:45";151
"21.03.2024 02:00";151
"21.03.2024 02:15";151
"21.03.2024 02:30";151
"21.03.2024 02:45";151
"21.03.2024 03:00";151
"21.03.2024 03:15";151
"21.03.2024 03:30";151
"21.03.2024 03:45";151
"21.03.2024 04:00";151
"21.03.2024 04:15";151
"21.03.2024 04:30";151
"21.03.2024 04:45";151
"21.03.2024 05:00";151
"21.03.2024 05:15";151
"21.03.2024 05:30";151
"21.03.2024 05:45";151
"21.03.2024 06:00";151
"21.03.2024 06:15";152
"21.03.2024 06:30";152
"21.03.2024 06:45";152
"21.03.2024 07:00";152
"21.03.2024 07:15";152
"21.03.2024 07:30";152
"21.03.2024 07:45";153
"21.03.2024 08:00";153
"21.03.2024 08:15";153
"21.03.2024 08:30";153
"21.03.2024 08:45";153
"21.03.2024 09:00";153
"21.03.2024 09:15";154
"21.03.2024 09:30";154
"21.03.2024 09:45";154
"21.03.2024 10:00";154
"21.03.2024 10:15";154
"21.03.2024 10:30";154
"21.03.2024 10:45";154
"21.03.2024 11:00";154
"21.03.2024 11:15";154
"21.03.2024 11:30";155
"21.03.2024 11:45";155
"21.03.2024 12:00";155
"21.03.2024 12:15";155
"21.03.2024 12:30";156
"21.03.2024 12:45";156
"21.03.2024 13:00";156
"21.03.2024 13:15";157
"21.03.2024 13:30";157
"21.03.2024 13:45";157
"21.03.2024 14:00";157
"21.03.2024 14:15";158
"21.03.2024 14:30";158
"21.03.2024 14:45";158
"21.03.2024 15:00";158
"21.03.2024 15:15";159
"21.03.2024 15:30";159
"21.03.2024 15:45";159
"21.03.2024 16:00";159
"21.03.2024 16:15";159
"21.03.2024 16:30";159
"21.03.2024 16:45";159
"21.03.2024 17:00";159
"21.03.2024 17:15";159
"21.03.2024 17:30";159
"21.03.2024 17:45";158
"21.03.2024 18:00";158
"21.03.2024 18:15";158
"21.03.2024 18:30";158
"21.03.2024 18:45";158
"21.03.2024 19:00";158
"21.03.2024 19:15";158
"21.03.2024 19:30";158
"21.03.2024 19:45";158
"21.03.2024 20:00";158
"21.03.2024 20:15";157
"21.03.2024 20:30";157
"21.03.2024 20:45";157
"21.03.2024 21:00";157
"21.03.2024 21:15";157
"21.03.2024 21:30";157
"21.03.2024 21:45";157
"21.03.2024 22:00";157
"21.03.2024 22:15";157
"21.03.2024 22:30";157
"21.03.2024 22:45";157
"21.03.2024 23:00";157
"21.03.2024 23:15";157
"21.03.2024 23:30";157
"21.03.2024 23:45";157
"22.03.2024 00:00";156
"22.03.2024 00:15";156
"22.03.2024 00:30";156
"22.03.2024 00:45";156
"22.03.2024 01:00";156
"22.03.2024 01:15";156
"22.03.2024 01:30";156
"22.03.2024 01:45";156
"22.03.2024 02:00";156
"22.03.2024 02:15";156
"22.03.2024 02:30";156
"22.03.2024 02:45";156
"22.03.2024 03:00";156
"22.03.2024 03:15";156
"22.03.2024 03:30";156
"22.03.2024 03:45";156
"22.03.2024 04:00";156
"22.03.2024 04:15";156
"22.03.2024 04:30";156
"22.03.2024 04:45";156
"22.03.2024 05:00";156
"22.03.2024 05:15";156
"22.03.2024 05:30";156
"22.03.2024 05:45";156
"22.03.2024 06:00";156
"22.03.2024 06:15";156
"22.03.2024 06:30";156
"22.03.2024 06:45";156
"22.03.2024 07:00";156
"22.03.2024 07:15";156
"22.03.2024 07:30";156
"22.03.2024 07:45";156
"22.03.2024 08:00";156
"22.03.2024 08:15";155
"22.03.2024 08:30";155
"22.03.2024 08:45";155
"22.03.2024 09:00";155
"22.03.2024 09:15";155
"22.03.2024 09:30";155
"22.03.2024 09:45";155
"22.03.2024 10:00";155
"22.03.2024 10:15";155
"22.03.2024 10:30";155
"22.03.2024 10:45";155
"22.03.2024 11:00";155
"22.03.2024 11:15";155
"22.03.2024 11:30";155
"22.03.2024 11:45";155
"22.03.2024 12:00";155
"22.03.2024 12:15";155
"22.03.2024 12:30";155
"22.03.2024 12:45";155
"22.03.2024 13:00";155
"22.03.2024 13:15";155
"22.03.2024 13:30";155
"22.03.2024 13:45";155
"22.03.2024 14:00";155
"22.03.2024 14:15";155
"22.03.2024 14:30";155
"22.03.2024 14:45";155
"22.03.2024 15:00";155
"22.03.2024 15:15";155
"22.03.2024 15:30";155
"22.03.2024 15:45";155
"22.03.2024 16:00";155
"22.03.2024 16:15";155
"22.03.2024 16:30";155
"22.03.2024 16:45";155
"22.03.2024 17:00";155
"22.03.2024 17:15";155
"22.03.2024 17:30";155
"22.03.2024 17:45";155
"22.03.2024 18:00";155
"22.03.2024 18:15";155
"22.03.2024 18:30";155
"22.03.2024 18:45";155
"22.03.2024 19:00";155
"22.03.2024 19:15";155
"22.03.2024 19:30";155
"22.03.2024 19:45";156
"22.03.2024 20:00";156
"22.03.2024 20:15";156
"22.03.2024 20:30";156
"22.03.2024 20:45";156
"22.03.2024 21:00";156
"22.03.2024 21:15";156
"22.03.2024 21:30";156
"22.03.2024 21:45";156
"22.03.2024 22:00";156
"22.03.2024 22:15";156
"22.03.2024 22:30";156
"22.03.2024 22:45";156
"22.03.2024 23:00";156
"22.03.2024 23:15";156
"22.03.2024 23:30";156
"22.03.2024 23:45";156
"23.03.2024 00:00";156
"23.03.2024 00:15";157
"23.03.2024 00:30";157
"23.03.2024 00:45";157
"23.03.2024 01:00";157
"23.03.2024 01:15";157
"23.03.2024 01:30";157
"23.03.2024 01:45";157
"23.03.2024 02:00";157
"23.03.2024 02:15";157
"23.03.2024 02:30";157
"23.03.2024 02:45";157
"23.03.2024 03:00";157
"23.03.2024 03:15";157
"23.03.2024 03:30";157
"23.03.2024 03:45";157
"23.03.2024 04:00";158
"23.03.2024 04:15";158
"23.03.2024 04:30";158
"23.03.2024 04:45";158
"23.03.2024 05:00";158
"23.03.2024 05:15";158
"23.03.2024 05:30";158
"23.03.2024 05:45";158
"23.03.2024 06:00";158
"23.03.2024 06:15";158
"23.03.2024 06:30";158
"23.03.2024 06:45";158
"23.03.2024 07:00";158
"23.03.2024 07:15";158
"23.03.2024 07:30";158
"23.03.2024 07:45";158
"23.03.2024 08:00";158
"23.03.2024 08:15";158
"23.03.2024 08:30";158
"23.03.2024 08:45";158
"23.03.2024 09:00";158
"23.03.2024 09:15";158
"23.03.2024 09:30";158
"23.03.2024 09:45";158
"23.03.2024 10:00";158
"23.03.2024 10:15";158
"23.03.2024 10:30";158
"23.03.2024 10:45";158
"23.03.2024 11:00";158
"23.03.2024 11:15";158
"23.03.2024 11:30";158
"23.03.2024 11:45";158
"23.03.2024 12:00";158
"23.03.2024 12:15";158
"23.03.2024 12:30";158
"23.03.2024 12:45";158
"23.03.2024 13:00";157
"23.03.2024 13:15";157
"23.03.2024 13:30";157
"23.03.2024 13:45";157
"23.03.2024 14:00";157
"23.03.2024 14:15";157
"23.03.2024 14:30";157
"23.03.2024 14:45";157
"23.03.2024 15:00";157
"23.03.2024 15:15";157
"23.03.2024 15:30";157
"23.03.2024 15:45";157
"23.03.2024 16:00";157
"23.03.2024 16:15";157
"23.03.2024 16:30";157
"23.03.2024 16:45";157
"23.03.2024 17:00";157
"23.03.2024 17:15";157
"23.03.2024 17:30";157
"23.03.2024 17:45";157
"23.03.2024 18:00";157
"23.03.2024 18:15";157
"23.03.2024 18:30";157
"23.03.2024 18:45";157
"23.03.2024 19:00";157
"23.03.2024 19:15";157
"23.03.2024 19:30";157
"23.03.2024 19:45";157
"23.03.2024 20:00";157
"23.03.2024 20:15";157
"23.03.2024 20:30";157
"23.03.2024 20:45";157
"23.03.2024 21:00";158
"23.03.2024 21:15";158
"23.03.2024 21:30";158
"23.03.2024 21:45";158
"23.03.2024 22:00";158
"23.03.2024 22:15";158
"23.03.2024 22:30";158
"23.03.2024 22:45";157
"23.03.2024 23:00";157
"23.03.2024 23:15";157
"23.03.2024 23:30";157
"23.03.2024 23:45";157
"24.03.2024 00:00";157
"24.03.2024 00:15";157
"24.03.2024 00:30";157
"24.03.2024 00:45";157
"24.03.2024 01:00";157
"24.03.2024 01:15";157
"24.03.2024 01:30";157
"24.03.2024 01:45";157
"24.03.2024 02:00";157
"24.03.2024 02:15";157
"24.03.2024 02:30";157
"24.03.2024 02:45";157
"24.03.2024 03:00";157
"24.03.2024 03:15";157
"24.03.2024 03:30";157
"24.03.2024 03:45";157
"24.03.2024 04:00";157
"24.03.2024 04:15";157
"24.03.2024 04:30";157
"24.03.2024 04:45";157
"24.03.2024 05:00";157
"24.03.2024 05:15";157
"24.03.2024 05:30";157
"24.03.2024 05:45";157
"24.03.2024 06:00";157
"24.03.2024 06:15";157
"24.03.2024 06:30";156
"24.03.2024 06:45";156
"24.03.2024 07:00";156
"24.03.2024 07:15";156
"24.03.2024 07:30";156
"24.03.2024 07:45";156
"24.03.2024 08:00";156
"24.03.2024 08:15";156
"24.03.2024 08:30";156
"24.03.2024 08:45";156
"24.03.2024 09:00";156
"24.03.2024 09:15";156
"24.03.2024 09:30";156
"24.03.2024 09:45";156
"24.03.2024 10:00";156
"24.03.2024 10:15";156
"24.03.2024 10:30";156
"24.03.2024 10:45";156
"24.03.2024 11:00";156
"24.03.2024 11:15";156
"24.03.2024 11:30";156
"24.03.2024 11:45";156
"24.03.2024 12:00";156
"24.03.2024 12:15";156
"24.03.2024 12:30";156
"24.03.2024 12:45";156
"24.03.2024 13:00";156
"24.03.2024 13:15";156
"24.03.2024 13:30";156
"24.03.2024 13:45";156
"24.03.2024 14:00";156
"24.03.2024 14:15";156
"24.03.2024 14:30";156
"24.03.2024 14:45";156
"24.03.2024 15:00";156
"24.03.2024 15:15";156
"24.03.2024 15:30";156
"24.03.2024 15:45";156
"24.03.2024 16:00";156
"24.03.2024 16:15";156
"24.03.2024 16:30";156
"24.03.2024 16:45";156
"24.03.2024 17:00";156
"24.03.2024 17:15";157
"24.03.2024 17:30";157
"24.03.2024 17:45";157
"24.03.2024 18:00";157
"24.03.2024 18:15";157
"24.03.2024 18:30";157
"24.03.2024 18:45";157
"24.03.2024 19:00";157
"24.03.2024 19:15";157
"24.03.2024 19:30";158
"24.03.2024 19:45";158
"24.03.2024 20:00";158
"24.03.2024 20:15";158
"24.03.2024 20:30";158
"24.03.2024 20:45";158
"24.03.2024 21:00";158
"24.03.2024 21:15";158
"24.03.2024 21:30";158
"24.03.2024 21:45";158
"24.03.2024 22:00";158
"24.03.2024 22:15";159
"24.03.2024 22:30";159
"24.03.2024 22:45";159
"24.03.2024 23:00";159
"24.03.2024 23:15";159
"24.03.2024 23:30";159
"24.03.2024 23:45";159
"25.03.2024 00:00";159
"25.03.2024 00:15";159
"25.03.2024 00:30";159
"25.03.2024 00:45";159
"25.03.2024 01:00";159
"25.03.2024 01:15";159
"25.03.2024 01:30";159
"25.03.2024 01:45";159
"25.03.2024 02:00";159
"25.03.2024 02:15";159
"25.03.2024 02:30";159
"25.03.2024 02:45";160
"25.03.2024 03:00";160
"25.03.2024 03:15";160
"25.03.2024 03:30";160
"25.03.2024 03:45";160
"25.03.2024 04:00";160
"25.03.2024 04:15";160
"25.03.2024 04:30";160
"25.03.2024 04:45";160
"25.03.2024 05:00";160
"25.03.2024 05:15";160
"25.03.2024 05:30";160
"25.03.2024 05:45";160
"25.03.2024 06:00";160
"25.03.2024 06:15";160
"25.03.2024 06:30";160
"25.03.2024 06:45";160
"25.03.2024 07:00";160
"25.03.2024 07:15";160
"25.03.2024 07:30";160
"25.03.2024 07:45";161
"25.03.2024 08:00";161
"25.03.2024 08:15";161
"25.03.2024 08:30";161
"25.03.2024 08:45";161
"25.03.2024 09:00";161
"25.03.2024 09:15";162
"25.03.2024 09:30";162
"25.03.2024 09:45";162
"25.03.2024 10:00";162
"25.03.2024 10:15";163
"25.03.2024 10:30";163
"25.03.2024 10:45";163
"25.03.2024 11:00";163
"25.03.2024 11:15";163
"25.03.2024 11:30";164
"25.03.2024 11:45";164
"25.03.2024 12:00";164
"25.03.2024 12:15";164
"25.03.2024 12:30";164
"25.03.2024 12:45";164
"25.03.2024 13:00";164
"25.03.2024 13:15";164
"25.03.2024 13:30";164
"25.03.2024 13:45";164
"25.03.2024 14:00";164
"25.03.2024 14:15";164
"25.03.2024 14:30";164
"25.03.2024 14:45";164
"25.03.2024 15:00";164
"25.03.2024 15:15";163
"25.03.2024 15:30";163
"25.03.2024 15:45";163
"25.03.2024 16:00";163
"25.03.2024 16:15";163
"25.03.2024 16:30";163
"25.03.2024 16:45";163
"25.03.2024 17:00";163
"25.03.2024 17:15";162
"25.03.2024 17:30";162
"25.03.2024 17:45";162
"25.03.2024 18:00";162
"25.03.2024 18:15";162
"25.03.2024 18:30";162
"25.03.2024 18:45";162
"25.03.2024 19:00";162
"25.03.2024 19:15";162
"25.03.2024 19:30";161
"25.03.2024 19:45";161
"25.03.2024 20:00";161
"25.03.2024 20:15";161
"25.03.2024 20:30";161
"25.03.2024 20:45";161
"25.03.2024 21:00";161
"25.03.2024 21:15";161
"25.03.2024 21:30";161
"25.03.2024 21:45";161
"25.03.2024 22:00";161
"25.03.2024 22:15";161
"25.03.2024 22:30";161
"25.03.2024 22:45";161
"25.03.2024 23:00";161
"25.03.2024 23:15";161
"25.03.2024 23:30";161
"25.03.2024 23:45";160
"26.03.2024 00:00";160
"26.03.2024 00:15";160
"26.03.2024 00:30";160
"26.03.2024 00:45";160
"26.03.2024 01:00";160
"26.03.2024 01:15";160
"26.03.2024 01:30";160
"26.03.2024 01:45";160
"26.03.2024 02:00";160
"26.03.2024 02:15";160
"26.03.2024 02:30";160
"26.03.2024 02:45";160
"26.03.2024 03:00";160
"26.03.2024 03:15";160
"26.03.2024 03:30";160
"26.03.2024 03:45";160
"26.03.2024 04:00";160
"26.03.2024 04:15";160
"26.03.2024 04:30";160
"26.03.2024 04:45";160
"26.03.2024 05:00";160
"26.03.2024 05:15";159
"26.03.2024 05:30";159
"26.03.2024 05:45";159
"26.03.2024 06:00";159
"26.03.2024 06:15";159
"26.03.2024 06:30";159
"26.03.2024 06:45";159
"26.03.2024 07:00";159
"26.03.2024 07:15";159
"26.03.2024 07:30";159
"26.03.2024 07:45";159
"26.03.2024 08:00";159
"26.03.2024 08:15";159
"26.03.2024 08:30";159
"26.03.2024 08:45";159
"26.03.2024 09:00";159
"26.03.2024 09:15";159
"26.03.2024 09:30";159
"26.03.2024 09:45";159
"26.03.2024 10:00";159
"26.03.2024 10:15";159
"26.03.2024 10:30";159
"26.03.2024 10:45";159
"26.03.2024 11:00";159
"26.03.2024 11:15";159
"26.03.2024 11:30";159
"26.03.2024 11:45";158
"26.03.2024 12:00";158
"26.03.2024 12:15";158
"26.03.2024 12:30";158
"26.03.2024 12:45";158
"26.03.2024 13:00";158
"26.03.2024 13:15";158
"26.03.2024 13:30";158
"26.03.2024 13:45";158
"26.03.2024 14:00";158
"26.03.2024 14:15";158
"26.03.2024 14:30";158
"26.03.2024 14:45";158
"26.03.2024 15:00";158
"26.03.2024 15:15";158
"26.03.2024 15:30";158
"26.03.2024 15:45";158
"26.03.2024 16:00";158
"26.03.2024 16:15";158
"26.03.2024 16:30";158
"26.03.2024 16:45";158
"26.03.2024 17:00";158
"26.03.2024 17:15";158
"26.03.2024 17:30";158
"26.03.2024 17:45";158
"26.03.2024 18:00";158
"26.03.2024 18:15";158
"26.03.2024 18:30";158
"26.03.2024 18:45";158
"26.03.2024 19:00";158
"26.03.2024 19:15";158
"26.03.2024 19:30";158
"26.03.2024 19:45";158
"26.03.2024 20:00";158
"26.03.2024 20:15";158
"26.03.2024 20:30";158
"26.03.2024 20:45";158
"26.03.2024 21:00";158
"26.03.2024 21:15";158
"26.03.2024 21:30";158
"26.03.2024 21:45";158
"26.03.2024 22:00";158
"26.03.2024 22:15";158
"26.03.2024 22:30";157
"26.03.2024 22:45";157
"26.03.2024 23:00";157
"26.03.2024 23:15";157
"26.03.2024 23:30";157
"26.03.2024 23:45";157
"27.03.2024 00:00";157
"27.03.2024 00:15";157
"27.03.2024 00:30";157
"27.03.2024 00:45";157
"27.03.2024 01:00";157
"27.03.2024 01:15";157
"27.03.2024 01:30";157
"27.03.2024 01:45";157
"27.03.2024 02:00";157
"27.03.2024 02:15";157
"27.03.2024 02:30";157
"27.03.2024 02:45";157
"27.03.2024 03:00";157
"27.03.2024 03:15";157
"27.03.2024 03:30";157
"27.03.2024 03:45";157
"27.03.2024 04:00";157
"27.03.2024 04:15";157
"27.03.2024 04:30";157
"27.03.2024 04:45";157
"27.03.2024 05:00";157
"27.03.2024 05:15";157
"27.03.2024 05:30";157
"27.03.2024 05:45";157
"27.03.2024 06:00";157
"27.03.2024 06:15";157
"27.03.2024 06:30";157
"27.03.2024 06:45";157
"27.03.2024 07:00";157
"27.03.2024 07:15";157
"27.03.2024 07:30";157
"27.03.2024 07:45";157
"27.03.2024 08:00";157
"27.03.2024 08:15";157
"27.03.2024 08:30";157
"27.03.2024 08:45";157
"27.03.2024 09:00";157
"27.03.2024 09:15";157
"27.03.2024 09:30";157
"27.03.2024 09:45";157
"27.03.2024 10:00";157
"27.03.2024 10:15";157
"27.03.2024 10:30";157
"27.03.2024 10:45";157
"27.03.2024 11:00";157
"27.03.2024 11:15";157
"27.03.2024 11:30";157
"27.03.2024 11:45";157
"27.03.2024 12:00";157
"27.03.2024 12:15";157
"27.03.2024 12:30";157
"27.03.2024 12:45";157
"27.03.2024 13:00";157
"27.03.2024 13:15";157
"27.03.2024 13:30";157
"27.03.2024 13:45";157
"27.03.2024 14:00";157
"27.03.2024 14:15";157
"27.03.2024 14:30";157
"27.03.2024 14:45";157
"27.03.2024 15:00";157
"27.03.2024 15:15";157
"27.03.2024 15:30";156
"27.03.2024 15:45";156
"27.03.2024 16:00";156
"27.03.2024 16:15";156
"27.03.2024 16:30";156
"27.03.2024 16:45";156
"27.03.2024 17:00";156
"27.03.2024 17:15";156
"27.03.2024 17:30";156
"27.03.2024 17:45";156
"27.03.2024 18:00";156
"27.03.2024 18:15";156
"27.03.2024 18:30";156
"27.03.2024 18:45";156
"27.03.2024 19:00";156
"27.03.2024 19:15";156
"27.03.2024 19:30";156
"27.03.2024 19:45";156
"27.03.2024 20:00";156
"27.03.2024 20:15";156
"27.03.2024 20:30";156
"27.03.2024 20:45";156
"27.03.2024 21:00";156
"27.03.2024 21:15";156
"27.03.2024 21:30";156
"27.03.2024 21:45";156
"27.03.2024 22:00";156
"27.03.2024 22:15";156
"27.03.2024 22:30";156
"27.03.2024 22:45";156
"27.03.2024 23:00";157
"27.03.2024 23:15";157
"27.03.2024 23:30";157
"27.03.2024 23:45";157
"28.03.2024 00:00";156
"28.03.2024 00:15";156
"28.03.2024 00:30";156
"28.03.2024 00:45";156
"28.03.2024 01:00";156
"28.03.2024 01:15";156
"28.03.2024 01:30";156
"28.03.2024 01:45";156
"28.03.2024 02:00";156
"28.03.2024 02:15";156
"28.03.2024 02:30";156
"28.03.2024 02:45";156
"28.03.2024 03:00";156
"28.03.2024 03:15";156
"28.03.2024 03:30";155
"28.03.2024 03:45";155
"28.03.2024 04:00";155
"28.03.2024 04:15";155
"28.03.2024 04:30";155
"28.03.2024 04:45";155
"28.03.2024 05:00";155
"28.03.2024 05:15";155
"28.03.2024 05:30";155
"28.03.2024 05:45";155
"28.03.2024 06:00";155
"28.03.2024 06:15";155
"28.03.2024 06:30";155
"28.03.2024 06:45";155
"28.03.2024 07:00";155
"28.03.2024 07:15";155
"28.03.2024 07:30";155
"28.03.2024 07:45";155
"28.03.2024 08:00";155
"28.03.2024 08:15";155
"28.03.2024 08:30";155
"28.03.2024 08:45";155
"28.03.2024 09:00";155
"28.03.2024 09:15";155
"28.03.2024 09:30";155
"28.03.2024 09:45";155
"28.03.2024 10:00";155
"28.03.2024 10:15";155
"28.03.2024 10:30";155
"28.03.2024 10:45";155
"28.03.2024 11:00";155
"28.03.2024 11:15";155
"28.03.2024 11:30";155
"28.03.2024 11:45";155
"28.03.2024 12:00";155
"28.03.2024 12:15";155
"28.03.2024 12:30";155
"28.03.2024 12:45";155
"28.03.2024 13:00";155
"28.03.2024 13:15";155
"28.03.2024 13:30";155
"28.03.2024 13:45";154
"28.03.2024 14:00";154
"28.03.2024 14:15";154
"28.03.2024 14:30";153
"28.03.2024 14:45";153
"28.03.2024 15:00";152
"28.03.2024 15:15";152
"28.03.2024 15:30";151
"28.03.2024 15:45";151
"28.03.2024 16:00";151
"28.03.2024 16:15";151
"28.03.2024 16:30";150
"28.03.2024 16:45";150
"28.03.2024 17:00";151
"28.03.2024 17:15";151
"28.03.2024 17:30";151
"28.03.2024 17:45";151
"28.03.2024 18:00";152
"28.03.2024 18:15";152
"28.03.2024 18:30";153
"28.03.2024 18:45";153
"28.03.2024 19:00";153
"28.03.2024 19:15";153
"28.03.2024 19:30";154
"28.03.2024 19:45";154
"28.03.2024 20:00";154
"28.03.2024 20:15";154
"28.03.2024 20:30";154
"28.03.2024 20:45";154
"28.03.2024 21:00";154
"28.03.2024 21:15";154
"28.03.2024 21:30";154
"28.03.2024 21:45";154
"28.03.2024 22:00";154
"28.03.2024 22:15";154
"28.03.2024 22:30";154
"28.03.2024 22:45";154
"28.03.2024 23:00";154
"28.03.2024 23:15";154
"28.03.2024 23:30";154
"28.03.2024 23:45";154
"29.03.2024 00:00";154
"29.03.2024 00:15";154
"29.03.2024 00:30";154
"29.03.2024 00:45";154
"29.03.2024 01:00";154
"29.03.2024 01:15";154
"29.03.2024 01:30";154
"29.03.2024 01:45";154
"29.03.2024 02:00";154
"29.03.2024 02:15";154
"29.03.2024 02:30";154
"29.03.2024 02:45";154
"29.03.2024 03:00";154
"29.03.2024 03:15";154
"29.03.2024 03:30";154
"29.03.2024 03:45";154
"29.03.2024 04:00";154
"29.03.2024 04:15";154
"29.03.2024 04:30";154
"29.03.2024 04:45";154
"29.03.2024 05:00";154
"29.03.2024 05:15";154
"29.03.2024 05:30";154
"29.03.2024 05:45";154
"29.03.2024 06:00";154
"29.03.2024 06:15";154
"29.03.2024 06:30";154
"29.03.2024 06:45";154
"29.03.2024 07:00";154
"29.03.2024 07:15";154
"29.03.2024 07:30";154
"29.03.2024 07:45";154
"29.03.2024 08:00";154
"29.03.2024 08:15";154
"29.03.2024 08:30";154
"29.03.2024 08:45";154
"29.03.2024 09:00";154
"29.03.2024 09:15";154
"29.03.2024 09:30";154
"29.03.2024 09:45";154
"29.03.2024 10:00";154
"29.03.2024 10:15";154
"29.03.2024 10:30";154
"29.03.2024 10:45";154
"29.03.2024 11:00";154
"29.03.2024 11:15";154
"29.03.2024 11:30";154
"29.03.2024 11:45";154
"29.03.2024 12:00";154
"29.03.2024 12:15";154
"29.03.2024 12:30";154
"29.03.2024 12:45";154
"29.03.2024 13:00";154
"29.03.2024 13:15";154
"29.03.2024 13:30";154
"29.03.2024 13:45";154
"29.03.2024 14:00";154
"29.03.2024 14:15";154
"29.03.2024 14:30";154
"29.03.2024 14:45";154
"29.03.2024 15:00";154
"29.03.2024 15:15";154
"29.03.2024 15:30";154
"29.03.2024 15:45";154
"29.03.2024 16:00";154
"29.03.2024 16:15";154
"29.03.2024 16:30";154
"29.03.2024 16:45";154
"29.03.2024 17:00";154
"29.03.2024 17:15";154
"29.03.2024 17:30";154
"29.03.2024 17:45";154
"29.03.2024 18:00";154
"29.03.2024 18:15";154
"29.03.2024 18:30";154
"29.03.2024 18:45";154
"29.03.2024 19:00";154
"29.03.2024 19:15";154
"29.03.2024 19:30";154
"29.03.2024 19:45";154
"29.03.2024 20:00";154
"29.03.2024 20:15";154
"29.03.2024 20:30";154
"29.03.2024 20:45";154
"29.03.2024 21:00";154
"29.03.2024 21:15";154
"29.03.2024 21:30";154
"29.03.2024 21:45";154
"29.03.2024 22:00";154
"29.03.2024 22:15";155
"29.03.2024 22:30";155
"29.03.2024 22:45";155
"29.03.2024 23:00";155
"29.03.2024 23:15";155
"29.03.2024 23:30";155
"29.03.2024 23:45";155
"30.03.2024 00:00";155
"30.03.2024 00:15";155
"30.03.2024 00:30";155
"30.03.2024 00:45";155
"30.03.2024 01:00";155
"30.03.2024 01:15";154
"30.03.2024 01:30";154
"30.03.2024 01:45";154
"30.03.2024 02:00";154
"30.03.2024 02:15";154
"30.03.2024 02:30";154
"30.03.2024 02:45";154
"30.03.2024 03:00";154
"30.03.2024 03:15";154
"30.03.2024 03:30";154
"30.03.2024 03:45";154
"30.03.2024 04:00";154
"30.03.2024 04:15";154
"30.03.2024 04:30";154
"30.03.2024 04:45";154
"30.03.2024 05:00";154
"30.03.2024 05:15";154
"30.03.2024 05:30";154
"30.03.2024 05:45";154
"30.03.2024 06:00";154
"30.03.2024 06:15";154
"30.03.2024 06:30";154
"30.03.2024 06:45";154
"30.03.2024 07:00";154
"30.03.2024 07:15";154
"30.03.2024 07:30";154
"30.03.2024 07:45";154
"30.03.2024 08:00";154
"30.03.2024 08:15";154
"30.03.2024 08:30";154
"30.03.2024 08:45";154
"30.03.2024 09:00";154
"30.03.2024 09:15";154
"30.03.2024 09:30";154
"30.03.2024 09:45";154
"30.03.2024 10:00";154
"30.03.2024 10:15";154
"30.03.2024 10:30";154
"30.03.2024 10:45";154
"30.03.2024 11:00";154
"30.03.2024 11:15";154
"30.03.2024 11:30";154
"30.03.2024 11:45";154
"30.03.2024 12:00";154
"30.03.2024 12:15";154
"30.03.2024 12:30";154
"30.03.2024 12:45";154
"30.03.2024 13:00";154
"30.03.2024 13:15";154
"30.03.2024 13:30";154
"30.03.2024 13:45";154
"30.03.2024 14:00";154
"30.03.2024 14:15";154
"30.03.2024 14:30";154
"30.03.2024 14:45";154
"30.03.2024 15:00";154
"30.03.2024 15:15";154
"30.03.2024 15:30";154
"30.03.2024 15:45";154
"30.03.2024 16:00";154
"30.03.2024 16:15";153
"30.03.2024 16:30";153
"30.03.2024 16:45";153
"30.03.2024 17:00";153
"30.03.2024 17:15";153
"30.03.2024 17:30";153
"30.03.2024 17:45";153
"30.03.2024 18:00";153
"30.03.2024 18:15";153
"30.03.2024 18:30";153
"30.03.2024 18:45";153
"30.03.2024 19:00";153
"30.03.2024 19:15";153
"30.03.2024 19:30";153
"30.03.2024 19:45";153
"30.03.2024 20:00";153
"30.03.2024 20:15";153
"30.03.2024 20:30";153
"30.03.2024 20:45";153
"30.03.2024 21:00";153
"30.03.2024 21:15";153
"30.03.2024 21:30";153
"30.03.2024 21:45";153
"30.03.2024 22:00";153
"30.03.2024 22:15";153
"30.03.2024 22:30";153
"30.03.2024 22:45";153
"30.03.2024 23:00";153
"30.03.2024 23:15";153
"30.03.2024 23:30";153
"30.03.2024 23:45";153
"31.03.2024 00:00";153
"31.03.2024 00:15";153
"31.03.2024 00:30";153
"31.03.2024 00:45";153
"31.03.2024 01:00";153
"31.03.2024 01:15";153
"31.03.2024 01:30";153
"31.03.2024 01:45";153
"31.03.2024 02:00";153
"31.03.2024 02:15";153
"31.03.2024 02:30";153
"31.03.2024 02:45";153
"31.03.2024 03:00";153
"31.03.2024 03:15";153
"31.03.2024 03:30";153
"31.03.2024 03:45";153
"31.03.2024 04:00";153
"31.03.2024 04:15";153
"31.03.2024 04:30";153
"31.03.2024 04:45";153
"31.03.2024 05:00";153
"31.03.2024 05:15";153
"31.03.2024 05:30";153
"31.03.2024 05:45";153
"31.03.2024 06:00";153
"31.03.2024 06:15";153
"31.03.2024 06:30";153
"31.03.2024 06:45";153
"31.03.2024 07:00";153
"31.03.2024 07:15";153
"31.03.2024 07:30";153
"31.03.2024 07:45";153
"31.03.2024 08:00";153
"31.03.2024 08:15";153
"31.03.2024 08:30";153
"31.03.2024 08:45";153
"31.03.2024 09:00";153
"31.03.2024 09:15";153
"31.03.2024 09:30";153
"31.03.2024 09:45";153
"31.03.2024 10:00";153
"31.03.2024 10:15";153
"31.03.2024 10:30";153
"31.03.2024 10:45";153
"31.03.2024 11:00";153
"31.03.2024 11:15";153
"31.03.2024 11:30";153
"31.03.2024 11:45";153
"31.03.2024 12:00";153
"31.03.2024 12:15";153
"31.03.2024 12:30";153
"31.03.2024 12:45";153
"31.03.2024 13:00";153
"31.03.2024 13:15";153
"31.03.2024 13:30";153
"31.03.2024 13:45";153
"31.03.2024 14:00";153
"31.03.2024 14:15";153
"31.03.2024 14:30";153
"31.03.2024 14:45";153
"31.03.2024 15:00";153
"31.03.2024 15:15";153
"31.03.2024 15:30";153
"31.03.2024 15:45";153
"31.03.2024 16:00";153
"31.03.2024 16:15";153
"31.03.2024 16:30";153
"31.03.2024 16:45";153
"31.03.2024 17:00";153
"31.03.2024 17:15";153
"31.03.2024 17:30";153
"31.03.2024 17:45";153
"31.03.2024 18:00";153
"31.03.2024 18:15";153
"31.03.2024 18:30";153
"31.03.2024 18:45";153
"31.03.2024 19:00";153
"31.03.2024 19:15";153